Flag for Argentina Weather past 2 weeks in Río Gallegos, Santa Cruz, Argentina

Now
45 °F

Passing clouds.


Feels Like: 37 °F
Forecast: N/A
Wind: 16 mph from West

Location: Rio Gallegos Aerodrome

Current Time: Sep 18, 2014 at 7:30:25 PM

Latest Report: Sep 18, 2014 at 7:00 PM


Visibility: N/A

Pressure: 29.74 "Hg

Humidity: 46%

Dew point: 25 °F

Location of Río GallegosLocation

Historic Weather in Río Gallegos — Graph

°F

Río Gallegos temperature yesterday

Maximum temperature yesterday: 52 °F (at 11:00 AM)
Minimum temperature yesterday: 39 °F (at 10:00 PM)
Average temperature yesterday: 45 °F

Past Weeks' High & Low Weather Summary

 TemperatureHumidityPressure
High61 °F (Sep 14, 3:00 PM)100% (Sep 3, 6:00 PM)30.18 "Hg (Sep 3, 6:00 PM)
Low32 °F (Sep 11, 3:00 AM)16% (Sep 16, 1:00 PM)29.09 "Hg (Sep 11, 9:00 PM)
Average43 °F71%29.60 "Hg
* Reported Sep 3 6:00 PM — Sep 18 6:00 PM, Río Gallegos, Weather by CustomWeather, © 2014

Note: Actual official high and low records may vary slightly from our data, if they occured in-between our weather recording intervals... More about our weather records

Advertising

Río Gallegos weather history for previous 24 hours

 ConditionsComfort  
Time TempWeatherWind HumidityBarometerVisibility
6:00 PM
Sep 18
46 °FScattered clouds.15 mph34%29.71 "HgN/A
5:00 PM48 °FScattered clouds.21 mph37%29.71 "HgN/A
4:00 PM48 °FScattered clouds.21 mph37%29.71 "HgN/A
3:00 PM46 °FScattered clouds.18 mph37%29.68 "HgN/A
2:00 PM45 °FScattered clouds.20 mph34%29.68 "HgN/A
1:00 PM45 °FScattered clouds.22 mph34%29.68 "HgN/A
12:00 PM43 °FScattered clouds.22 mph42%29.68 "HgN/A
11:00 AM41 °FPassing clouds.18 mph57%29.68 "HgN/A
10:00 AM37 °FSunny.18 mph70%29.65 "Hg10 mi
9:00 AM34 °FSunny.13 mph81%29.65 "Hg10 mi
8:00 AM32 °FSunny.13 mph80%29.62 "Hg10 mi
7:00 AM32 °FSunny.14 mph80%29.59 "Hg10 mi
6:00 AM34 °FClear.9 mph87%29.59 "Hg10 mi
5:00 AM34 °FClear.13 mph87%29.56 "Hg10 mi
4:00 AM36 °FPassing clouds.13 mph87%29.50 "HgN/A
3:00 AM36 °FClear.13 mph87%29.50 "Hg10 mi
2:00 AM37 °FClear.10 mph87%29.45 "Hg10 mi
1:00 AM39 °FPassing clouds.12 mph87%29.42 "HgN/A
12:00 AM39 °FLight rain. Overcast.15 mph87%29.42 "HgN/A
11:00 PM
Sep 17
39 °FOvercast.12 mph87%29.39 "HgN/A
10:00 PM39 °FLight rain. Partly cloudy.10 mph87%29.39 "Hg5 mi
9:00 PM41 °FRain. Partly cloudy.6 mph87%29.39 "Hg5 mi
8:00 PM41 °FPartly cloudy.No wind87%29.36 "Hg5 mi
7:00 PM41 °FPartly cloudy.No wind93%29.36 "Hg5 mi
Weather by CustomWeather, © 2014

See weather overviewHow to use our weather pages